User: anonymous   Login
Location: Unspecified
(0.0000°N, 0.0000°E)
Time: 18:30:29
(UTC+00:00)
Language:

MOZHAYETS - Orbit

View from above orbital plane
View from above orbital plane
View from above satellite
View from above satellite

Ground track
Ground track

The orbit data is extracted from the following two-line orbital elements,

1 27560U 02054B   18053.24027091  .00000058  00000-0  22899-4 0  9990
2 27560  98.2381 189.7675 0041976  56.6680  60.6888 14.57686043808426
Epoch (UTC): 22 February 2018 05:45:59
Eccentricity: 0.0041976
inclination: 98.2381°
perigee height: 671 km
apogee height: 730 km
right ascension of ascending node: 189.7675°
argument of perigee: 56.6680°
revolutions per day: 14.57686043
mean anomaly at epoch: 60.6888°
orbit number at epoch: 80842

The dashed part of the orbit path shows where the satellite is in the earth's shadow,  

DLR